Time,TemperatureF,DewpointF,PressureIn,WindDirection,WindDirectionDegrees,WindSpeedMPH,WindSpeedGustMPH,Humidity,HourlyPrecipIn,Conditions,Clouds,dailyrainin,SolarRadiationWatts/m^2,SoftwareType,DateUTC
2013-04-29 00:01:00,51.2,40.6,30.27,South,175,8.0,10.0,67,0.00,,,0.00,0,HR-IXPWINDi_r2_v1.2.,2013-04-29 04:01:00,
2013-04-29 00:06:00,51.1,40.9,30.27,SSW,193,7.0,10.0,68,0.00,,,0.00,0,HR-IXPWINDi_r2_v1.2.,2013-04-29 04:06:00,
2013-04-29 00:11:00,51.0,41.1,30.27,South,190,8.0,9.0,69,0.00,,,0.00,0,HR-IXPWINDi_r2_v1.2.,2013-04-29 04:11:00,
2013-04-29 00:16:00,51.0,41.5,30.28,SSW,195,8.0,10.0,70,0.00,,,0.00,0,HR-IXPWINDi_r2_v1.2.,2013-04-29 04:16:00,
2013-04-29 00:22:00,50.9,41.8,30.27,South,191,8.0,10.0,71,0.00,,,0.00,0,HR-IXPWINDi_r2_v1.2.,2013-04-29 04:22:00,
2013-04-29 00:27:00,50.8,41.7,30.27,South,185,8.0,9.0,71,0.00,,,0.00,0,HR-IXPWINDi_r2_v1.2.,2013-04-29 04:27:00,
2013-04-29 00:32:00,50.7,42.0,30.27,South,184,8.0,9.0,72,0.00,,,0.00,0,HR-IXPWINDi_r2_v1.2.,2013-04-29 04:32:00,
2013-04-29 00:37:00,50.7,42.3,30.27,South,181,8.0,9.0,73,0.00,,,0.00,0,HR-IXPWINDi_r2_v1.2.,2013-04-29 04:37:00,
2013-04-29 00:42:00,50.6,42.6,30.28,South,190,8.0,10.0,74,0.00,,,0.00,0,HR-IXPWINDi_r2_v1.2.,2013-04-29 04:42:00,
2013-04-29 00:48:00,50.6,42.9,30.28,South,186,7.0,10.0,75,0.00,,,0.00,0,HR-IXPWINDi_r2_v1.2.,2013-04-29 04:48:00,
2013-04-29 00:53:00,50.5,43.2,30.28,South,179,7.0,9.0,76,0.00,,,0.00,0,HR-IXPWINDi_r2_v1.2.,2013-04-29 04:53:00,
2013-04-29 00:58:00,50.4,43.4,30.28,South,185,6.0,9.0,77,0.00,,,0.00,0,HR-IXPWINDi_r2_v1.2.,2013-04-29 04:58:00,
2013-04-29 01:03:00,50.3,43.6,30.28,South,188,7.0,9.0,78,0.00,,,0.00,0,HR-IXPWINDi_r2_v1.2.,2013-04-29 05:03:00,
2013-04-29 01:08:00,50.2,43.9,30.28,South,177,7.0,9.0,79,0.00,,,0.00,0,HR-IXPWINDi_r2_v1.2.,2013-04-29 05:08:00,
2013-04-29 01:14:00,50.1,44.1,30.27,South,187,7.0,8.0,80,0.00,,,0.00,0,HR-IXPWINDi_r2_v1.2.,2013-04-29 05:14:00,
2013-04-29 01:19:00,50.1,44.4,30.27,South,183,8.0,9.0,81,0.00,,,0.00,0,HR-IXPWINDi_r2_v1.2.,2013-04-29 05:19:00,
2013-04-29 01:24:00,50.1,44.4,30.27,South,184,8.0,9.0,81,0.00,,,0.00,0,HR-IXPWINDi_r2_v1.2.,2013-04-29 05:24:00,
2013-04-29 01:29:00,50.0,44.7,30.27,South,184,6.0,9.0,82,0.00,,,0.00,0,HR-IXPWINDi_r2_v1.2.,2013-04-29 05:29:00,
2013-04-29 01:34:00,49.9,44.9,30.27,South,188,8.0,8.0,83,0.00,,,0.00,0,HR-IXPWINDi_r2_v1.2.,2013-04-29 05:34:00,
2013-04-29 01:39:00,49.8,44.8,30.27,South,186,6.0,8.0,83,0.00,,,0.00,0,HR-IXPWINDi_r2_v1.2.,2013-04-29 05:39:00,
2013-04-29 01:45:00,49.7,45.0,30.27,South,187,5.0,8.0,84,0.00,,,0.00,0,HR-IXPWINDi_r2_v1.2.,2013-04-29 05:45:00,
2013-04-29 01:50:00,49.7,45.0,30.27,South,184,5.0,7.0,84,0.00,,,0.00,0,HR-IXPWINDi_r2_v1.2.,2013-04-29 05:50:00,
2013-04-29 01:55:00,49.8,45.1,30.27,South,188,5.0,6.0,84,0.00,,,0.00,0,HR-IXPWINDi_r2_v1.2.,2013-04-29 05:55:00,
2013-04-29 02:00:00,49.7,45.3,30.27,South,188,3.0,6.0,85,0.00,,,0.00,0,HR-IXPWINDi_r2_v1.2.,2013-04-29 06:00:00,
2013-04-29 02:06:00,49.6,45.2,30.27,South,181,5.0,7.0,85,0.00,,,0.00,0,HR-IXPWINDi_r2_v1.2.,2013-04-29 06:06:00,
2013-04-29 02:11:00,49.6,45.2,30.26,South,186,4.0,7.0,85,0.00,,,0.00,0,HR-IXPWINDi_r2_v1.2.,2013-04-29 06:11:00,
2013-04-29 02:16:00,49.6,45.5,30.26,South,182,5.0,7.0,86,0.00,,,0.00,0,HR-IXPWINDi_r2_v1.2.,2013-04-29 06:16:00,
2013-04-29 02:21:00,49.6,45.5,30.26,South,188,5.0,7.0,86,0.00,,,0.00,0,HR-IXPWINDi_r2_v1.2.,2013-04-29 06:21:00,
2013-04-29 02:26:00,49.6,45.5,30.26,South,181,4.0,6.0,86,0.00,,,0.00,0,HR-IXPWINDi_r2_v1.2.,2013-04-29 06:26:00,
2013-04-29 02:32:00,49.5,45.4,30.26,SSW,193,3.0,6.0,86,0.00,,,0.00,0,HR-IXPWINDi_r2_v1.2.,2013-04-29 06:32:00,
2013-04-29 02:37:00,49.4,45.6,30.26,South,185,7.0,7.0,87,0.00,,,0.00,0,HR-IXPWINDi_r2_v1.2.,2013-04-29 06:37:00,
2013-04-29 02:42:00,49.4,45.6,30.25,South,186,6.0,7.0,87,0.00,,,0.00,0,HR-IXPWINDi_r2_v1.2.,2013-04-29 06:42:00,
2013-04-29 02:47:00,49.5,45.7,30.25,South,186,6.0,7.0,87,0.00,,,0.00,0,HR-IXPWINDi_r2_v1.2.,2013-04-29 06:47:00,
2013-04-29 02:52:00,49.5,45.7,30.25,South,181,7.0,9.0,87,0.00,,,0.00,0,HR-IXPWINDi_r2_v1.2.,2013-04-29 06:52:00,
2013-04-29 02:58:00,49.6,45.8,30.25,South,188,7.0,9.0,87,0.00,,,0.00,0,HR-IXPWINDi_r2_v1.2.,2013-04-29 06:58:00,
2013-04-29 03:03:00,49.7,45.6,30.25,South,188,6.0,8.0,86,0.00,,,0.00,0,HR-IXPWINDi_r2_v1.2.,2013-04-29 07:03:00,
2013-04-29 03:08:00,49.7,45.6,30.25,South,183,3.0,8.0,86,0.00,,,0.00,0,HR-IXPWINDi_r2_v1.2.,2013-04-29 07:08:00,
2013-04-29 03:13:00,49.4,45.6,30.25,South,184,3.0,7.0,87,0.00,,,0.00,0,HR-IXPWINDi_r2_v1.2.,2013-04-29 07:13:00,
2013-04-29 03:18:00,49.3,45.5,30.24,South,190,5.0,7.0,87,0.00,,,0.00,0,HR-IXPWINDi_r2_v1.2.,2013-04-29 07:18:00,
2013-04-29 03:23:00,49.3,45.5,30.24,South,189,5.0,7.0,87,0.00,,,0.00,0,HR-IXPWINDi_r2_v1.2.,2013-04-29 07:23:00,
2013-04-29 03:29:00,49.3,45.5,30.24,South,185,5.0,7.0,87,0.00,,,0.00,0,HR-IXPWINDi_r2_v1.2.,2013-04-29 07:29:00,
2013-04-29 03:34:00,49.3,45.5,30.24,South,187,6.0,7.0,87,0.00,,,0.00,0,HR-IXPWINDi_r2_v1.2.,2013-04-29 07:34:00,
2013-04-29 03:39:00,49.4,45.9,30.24,South,187,6.0,6.0,88,0.00,,,0.00,0,HR-IXPWINDi_r2_v1.2.,2013-04-29 07:39:00,
2013-04-29 03:44:00,49.4,45.9,30.24,South,185,4.0,6.0,88,0.00,,,0.00,0,HR-IXPWINDi_r2_v1.2.,2013-04-29 07:44:00,
2013-04-29 03:49:00,49.4,45.9,30.24,South,182,5.0,6.0,88,0.00,,,0.00,0,HR-IXPWINDi_r2_v1.2.,2013-04-29 07:49:00,
2013-04-29 03:54:00,49.4,45.9,30.24,South,186,4.0,6.0,88,0.00,,,0.00,0,HR-IXPWINDi_r2_v1.2.,2013-04-29 07:54:00,
2013-04-29 04:00:00,49.3,45.8,30.24,South,177,3.0,6.0,88,0.00,,,0.00,0,HR-IXPWINDi_r2_v1.2.,2013-04-29 08:00:00,
2013-04-29 04:05:00,49.1,45.6,30.25,SSE,167,2.0,5.0,88,0.00,,,0.00,0,HR-IXPWINDi_r2_v1.2.,2013-04-29 08:05:00,
2013-04-29 04:10:00,48.9,45.4,30.25,SSE,155,3.0,4.0,88,0.00,,,0.00,0,HR-IXPWINDi_r2_v1.2.,2013-04-29 08:10:00,
2013-04-29 04:15:00,48.8,45.3,30.25,SSE,163,1.0,4.0,88,0.00,,,0.00,0,HR-IXPWINDi_r2_v1.2.,2013-04-29 08:15:00,
2013-04-29 04:20:00,48.8,45.6,30.25,South,173,2.0,4.0,89,0.00,,,0.00,0,HR-IXPWINDi_r2_v1.2.,2013-04-29 08:20:00,
2013-04-29 04:25:00,48.8,45.6,30.25,South,179,2.0,4.0,89,0.00,,,0.00,0,HR-IXPWINDi_r2_v1.2.,2013-04-29 08:25:00,
2013-04-29 04:31:00,48.7,45.5,30.25,SSE,166,2.0,4.0,89,0.00,,,0.00,0,HR-IXPWINDi_r2_v1.2.,2013-04-29 08:31:00,
2013-04-29 04:36:00,48.6,45.7,30.25,SSE,162,2.0,4.0,90,0.00,,,0.00,0,HR-IXPWINDi_r2_v1.2.,2013-04-29 08:36:00,
2013-04-29 04:41:00,48.6,45.7,30.25,SSE,155,5.0,5.0,90,0.00,,,0.00,0,HR-IXPWINDi_r2_v1.2.,2013-04-29 08:41:00,
2013-04-29 04:46:00,48.5,45.6,30.25,South,175,1.0,5.0,90,0.00,,,0.00,0,HR-IXPWINDi_r2_v1.2.,2013-04-29 08:46:00,
2013-04-29 04:51:00,48.5,45.6,30.25,South,173,1.0,5.0,90,0.00,,,0.00,0,HR-IXPWINDi_r2_v1.2.,2013-04-29 08:51:00,
2013-04-29 04:57:00,48.5,45.6,30.25,South,171,2.0,4.0,90,0.00,,,0.00,0,HR-IXPWINDi_r2_v1.2.,2013-04-29 08:57:00,
2013-04-29 05:02:00,48.4,45.8,30.25,South,182,2.0,3.0,91,0.00,,,0.00,0,HR-IXPWINDi_r2_v1.2.,2013-04-29 09:02:00,
2013-04-29 05:07:00,48.4,45.8,30.25,South,174,1.0,3.0,91,0.00,,,0.00,0,HR-IXPWINDi_r2_v1.2.,2013-04-29 09:07:00,
2013-04-29 05:13:00,48.3,45.7,30.25,South,190,2.0,5.0,91,0.00,,,0.00,0,HR-IXPWINDi_r2_v1.2.,2013-04-29 09:13:00,
2013-04-29 05:18:00,48.3,45.7,30.25,South,187,3.0,5.0,91,0.00,,,0.00,0,HR-IXPWINDi_r2_v1.2.,2013-04-29 09:18:00,
2013-04-29 05:23:00,48.2,45.6,30.25,South,189,2.0,5.0,91,0.00,,,0.00,0,HR-IXPWINDi_r2_v1.2.,2013-04-29 09:23:00,
2013-04-29 05:28:00,48.2,45.9,30.25,South,189,1.0,4.0,92,0.00,,,0.00,0,HR-IXPWINDi_r2_v1.2.,2013-04-29 09:28:00,
2013-04-29 05:33:00,48.2,45.9,30.25,South,185,4.0,4.0,92,0.00,,,0.00,0,HR-IXPWINDi_r2_v1.2.,2013-04-29 09:33:00,
2013-04-29 05:38:00,48.1,45.8,30.25,South,187,2.0,5.0,92,0.00,,,0.00,0,HR-IXPWINDi_r2_v1.2.,2013-04-29 09:38:00,
2013-04-29 05:44:00,48.1,45.8,30.26,SSW,194,1.0,5.0,92,0.00,,,0.00,0,HR-IXPWINDi_r2_v1.2.,2013-04-29 09:44:00,
2013-04-29 05:49:00,48.2,45.9,30.26,South,186,3.0,5.0,92,0.00,,,0.00,5,HR-IXPWINDi_r2_v1.2.,2013-04-29 09:49:00,
2013-04-29 05:54:00,48.2,45.9,30.26,South,186,3.0,5.0,92,0.00,,,0.00,5,HR-IXPWINDi_r2_v1.2.,2013-04-29 09:54:00,
2013-04-29 05:59:00,48.2,45.9,30.26,South,185,1.0,5.0,92,0.00,,,0.00,11,HR-IXPWINDi_r2_v1.2.,2013-04-29 09:59:00,
2013-04-29 06:04:00,48.3,46.0,30.26,South,185,2.0,4.0,92,0.00,,,0.00,18,HR-IXPWINDi_r2_v1.2.,2013-04-29 10:04:00,
2013-04-29 06:10:00,48.3,46.0,30.27,South,185,0.0,4.0,92,0.00,,,0.00,23,HR-IXPWINDi_r2_v1.2.,2013-04-29 10:10:00,
2013-04-29 06:15:00,48.4,46.1,30.26,South,185,3.0,4.0,92,0.00,,,0.00,25,HR-IXPWINDi_r2_v1.2.,2013-04-29 10:15:00,
2013-04-29 06:20:00,48.4,46.1,30.27,South,185,3.0,4.0,92,0.00,,,0.00,30,HR-IXPWINDi_r2_v1.2.,2013-04-29 10:20:00,
2013-04-29 06:25:00,48.6,46.3,30.27,SSW,192,2.0,4.0,92,0.00,,,0.00,33,HR-IXPWINDi_r2_v1.2.,2013-04-29 10:25:00,
2013-04-29 06:31:00,48.5,46.2,30.27,SSW,192,1.0,4.0,92,0.00,,,0.00,37,HR-IXPWINDi_r2_v1.2.,2013-04-29 10:31:00,
2013-04-29 06:36:00,48.5,46.2,30.27,SSW,192,2.0,4.0,92,0.00,,,0.00,42,HR-IXPWINDi_r2_v1.2.,2013-04-29 10:36:00,
2013-04-29 06:41:00,48.5,46.2,30.27,SSW,192,2.0,3.0,92,0.00,,,0.00,49,HR-IXPWINDi_r2_v1.2.,2013-04-29 10:41:00,
2013-04-29 06:46:00,48.6,46.3,30.27,South,184,4.0,5.0,92,0.00,,,0.00,56,HR-IXPWINDi_r2_v1.2.,2013-04-29 10:46:00,
2013-04-29 06:52:00,48.7,46.4,30.27,South,190,0.0,5.0,92,0.00,,,0.00,67,HR-IXPWINDi_r2_v1.2.,2013-04-29 10:52:00,
2013-04-29 06:57:00,48.8,46.5,30.28,SE,146,0.0,4.0,92,0.00,,,0.00,74,HR-IXPWINDi_r2_v1.2.,2013-04-29 10:57:00,
2013-04-29 07:02:00,48.9,46.6,30.28,SSE,156,1.0,4.0,92,0.00,,,0.00,79,HR-IXPWINDi_r2_v1.2.,2013-04-29 11:02:00,
2013-04-29 07:07:00,49.0,46.4,30.28,South,188,2.0,3.0,91,0.00,,,0.00,84,HR-IXPWINDi_r2_v1.2.,2013-04-29 11:07:00,
2013-04-29 07:13:00,49.0,46.4,30.28,South,181,2.0,3.0,91,0.00,,,0.00,90,HR-IXPWINDi_r2_v1.2.,2013-04-29 11:13:00,
2013-04-29 07:18:00,49.1,46.5,30.28,South,191,3.0,3.0,91,0.00,,,0.00,98,HR-IXPWINDi_r2_v1.2.,2013-04-29 11:18:00,
2013-04-29 07:23:00,49.1,46.5,30.28,South,184,3.0,4.0,91,0.00,,,0.00,105,HR-IXPWINDi_r2_v1.2.,2013-04-29 11:23:00,
2013-04-29 07:28:00,49.2,46.6,30.28,South,184,5.0,5.0,91,0.00,,,0.00,114,HR-IXPWINDi_r2_v1.2.,2013-04-29 11:28:00,
2013-04-29 07:33:00,49.3,46.7,30.28,South,182,2.0,6.0,91,0.00,,,0.00,125,HR-IXPWINDi_r2_v1.2.,2013-04-29 11:33:00,
2013-04-29 07:39:00,49.4,46.8,30.28,South,181,3.0,6.0,91,0.00,,,0.00,128,HR-IXPWINDi_r2_v1.2.,2013-04-29 11:39:00,
2013-04-29 07:44:00,49.5,46.9,30.28,South,183,5.0,5.0,91,0.00,,,0.00,144,HR-IXPWINDi_r2_v1.2.,2013-04-29 11:44:00,
2013-04-29 07:49:00,49.6,46.7,30.28,South,190,4.0,6.0,90,0.00,,,0.00,178,HR-IXPWINDi_r2_v1.2.,2013-04-29 11:49:00,
2013-04-29 07:54:00,49.7,46.8,30.28,South,190,5.0,6.0,90,0.00,,,0.00,193,HR-IXPWINDi_r2_v1.2.,2013-04-29 11:54:00,
2013-04-29 08:00:00,49.9,47.0,30.28,SSW,194,5.0,6.0,90,0.00,,,0.00,232,HR-IXPWINDi_r2_v1.2.,2013-04-29 12:00:00,
2013-04-29 08:05:00,50.0,47.1,30.28,SSW,202,4.0,7.0,90,0.00,,,0.00,287,HR-IXPWINDi_r2_v1.2.,2013-04-29 12:05:00,
2013-04-29 08:10:00,50.2,47.3,30.28,SSW,192,4.0,7.0,90,0.00,,,0.00,366,HR-IXPWINDi_r2_v1.2.,2013-04-29 12:10:00,
2013-04-29 08:15:00,50.7,47.8,30.28,SSE,160,4.0,7.0,90,0.00,,,0.00,359,HR-IXPWINDi_r2_v1.2.,2013-04-29 12:15:00,
2013-04-29 08:20:00,50.9,47.7,30.28,SSW,193,6.0,7.0,89,0.00,,,0.00,410,HR-IXPWINDi_r2_v1.2.,2013-04-29 12:20:00,
2013-04-29 08:25:00,50.9,47.7,30.28,SSW,200,6.0,7.0,89,0.00,,,0.00,418,HR-IXPWINDi_r2_v1.2.,2013-04-29 12:25:00,
2013-04-29 08:31:00,51.0,47.8,30.28,South,178,6.0,8.0,89,0.00,,,0.00,445,HR-IXPWINDi_r2_v1.2.,2013-04-29 12:31:00,
2013-04-29 08:36:00,51.2,48.0,30.28,SSE,168,6.0,8.0,89,0.00,,,0.00,457,HR-IXPWINDi_r2_v1.2.,2013-04-29 12:36:00,
2013-04-29 08:41:00,51.3,47.8,30.28,SSW,198,5.0,8.0,88,0.00,,,0.00,443,HR-IXPWINDi_r2_v1.2.,2013-04-29 12:41:00,
2013-04-29 08:46:00,51.6,47.8,30.28,South,183,6.0,8.0,87,0.00,,,0.00,418,HR-IXPWINDi_r2_v1.2.,2013-04-29 12:46:00,
2013-04-29 08:51:00,52.0,48.2,30.28,South,180,2.0,8.0,87,0.00,,,0.00,468,HR-IXPWINDi_r2_v1.2.,2013-04-29 12:51:00,
2013-04-29 08:57:00,51.9,48.1,30.28,South,188,3.0,8.0,87,0.00,,,0.00,320,HR-IXPWINDi_r2_v1.2.,2013-04-29 12:57:00,
2013-04-29 09:02:00,51.6,47.8,30.28,South,175,2.0,6.0,87,0.00,,,0.00,297,HR-IXPWINDi_r2_v1.2.,2013-04-29 13:02:00,
2013-04-29 09:07:00,51.4,47.6,30.28,SSW,206,2.0,6.0,87,0.00,,,0.00,316,HR-IXPWINDi_r2_v1.2.,2013-04-29 13:07:00,
2013-04-29 09:12:00,51.3,47.5,30.28,SSE,154,3.0,6.0,87,0.00,,,0.00,457,HR-IXPWINDi_r2_v1.2.,2013-04-29 13:12:00,
2013-04-29 09:17:00,51.4,47.6,30.28,SSE,161,4.0,8.0,87,0.00,,,0.00,496,HR-IXPWINDi_r2_v1.2.,2013-04-29 13:17:00,
2013-04-29 09:23:00,51.6,47.8,30.28,SSE,163,3.0,8.0,87,0.00,,,0.00,613,HR-IXPWINDi_r2_v1.2.,2013-04-29 13:23:00,
2013-04-29 09:28:00,52.1,48.0,30.28,ESE,118,5.0,7.0,86,0.00,,,0.00,606,HR-IXPWINDi_r2_v1.2.,2013-04-29 13:28:00,
2013-04-29 09:33:00,52.4,48.0,30.28,SSE,167,4.0,7.0,85,0.00,,,0.00,592,HR-IXPWINDi_r2_v1.2.,2013-04-29 13:33:00,
2013-04-29 09:38:00,52.2,47.5,30.28,SE,142,4.0,7.0,84,0.00,,,0.00,693,HR-IXPWINDi_r2_v1.2.,2013-04-29 13:38:00,
2013-04-29 09:44:00,52.4,47.6,30.28,South,171,3.0,8.0,84,0.00,,,0.00,703,HR-IXPWINDi_r2_v1.2.,2013-04-29 13:44:00,
2013-04-29 09:49:00,52.6,47.8,30.27,SE,130,5.0,8.0,84,0.00,,,0.00,682,HR-IXPWINDi_r2_v1.2.,2013-04-29 13:49:00,
2013-04-29 09:54:00,52.9,47.5,30.28,ESE,116,2.0,9.0,82,0.00,,,0.00,587,HR-IXPWINDi_r2_v1.2.,2013-04-29 13:54:00,
2013-04-29 09:59:00,53.3,47.9,30.28,SE,130,6.0,9.0,82,0.00,,,0.00,613,HR-IXPWINDi_r2_v1.2.,2013-04-29 13:59:00,
2013-04-29 10:04:00,53.0,47.3,30.27,SSE,155,4.0,8.0,81,0.00,,,0.00,587,HR-IXPWINDi_r2_v1.2.,2013-04-29 14:04:00,
2013-04-29 10:10:00,53.4,47.7,30.27,ESE,116,7.0,8.0,81,0.00,,,0.00,656,HR-IXPWINDi_r2_v1.2.,2013-04-29 14:10:00,
2013-04-29 10:15:00,53.7,47.6,30.28,SSE,148,5.0,9.0,80,0.00,,,0.00,652,HR-IXPWINDi_r2_v1.2.,2013-04-29 14:15:00,
2013-04-29 10:20:00,53.8,47.7,30.28,SE,140,3.0,9.0,80,0.00,,,0.00,686,HR-IXPWINDi_r2_v1.2.,2013-04-29 14:20:00,
2013-04-29 10:25:00,54.3,47.9,30.28,SE,143,6.0,9.0,79,0.00,,,0.00,680,HR-IXPWINDi_r2_v1.2.,2013-04-29 14:25:00,
2013-04-29 10:30:00,53.8,47.4,30.27,SE,134,5.0,9.0,79,0.00,,,0.00,773,HR-IXPWINDi_r2_v1.2.,2013-04-29 14:30:00,
2013-04-29 10:35:00,54.3,47.5,30.27,SE,130,8.0,10.0,78,0.00,,,0.00,666,HR-IXPWINDi_r2_v1.2.,2013-04-29 14:35:00,
2013-04-29 10:41:00,54.9,47.8,30.28,SE,134,5.0,10.0,77,0.00,,,0.00,796,HR-IXPWINDi_r2_v1.2.,2013-04-29 14:41:00,
2013-04-29 10:46:00,55.3,47.5,30.27,SSE,159,3.0,10.0,75,0.00,,,0.00,851,HR-IXPWINDi_r2_v1.2.,2013-04-29 14:46:00,
2013-04-29 10:51:00,55.0,47.5,30.27,SSE,150,2.0,11.0,76,0.00,,,0.00,782,HR-IXPWINDi_r2_v1.2.,2013-04-29 14:51:00,
2013-04-29 10:56:00,55.3,47.8,30.27,SE,142,2.0,11.0,76,0.00,,,0.00,840,HR-IXPWINDi_r2_v1.2.,2013-04-29 14:56:00,
2013-04-29 11:01:00,55.2,47.7,30.27,ESE,114,10.0,11.0,76,0.00,,,0.00,840,HR-IXPWINDi_r2_v1.2.,2013-04-29 15:01:00,
2013-04-29 11:06:00,55.2,48.1,30.27,SE,142,4.0,13.0,77,0.00,,,0.00,819,HR-IXPWINDi_r2_v1.2.,2013-04-29 15:06:00,
2013-04-29 11:11:00,55.6,48.4,30.27,SE,136,4.0,13.0,77,0.00,,,0.00,824,HR-IXPWINDi_r2_v1.2.,2013-04-29 15:11:00,
2013-04-29 11:16:00,55.2,48.1,30.27,SE,138,6.0,11.0,77,0.00,,,0.00,819,HR-IXPWINDi_r2_v1.2.,2013-04-29 15:16:00,
2013-04-29 11:21:00,54.9,48.5,30.27,SSE,150,3.0,11.0,79,0.00,,,0.00,824,HR-IXPWINDi_r2_v1.2.,2013-04-29 15:21:00,
2013-04-29 11:26:00,55.3,48.8,30.27,SSE,155,2.0,11.0,79,0.00,,,0.00,831,HR-IXPWINDi_r2_v1.2.,2013-04-29 15:26:00,
2013-04-29 11:31:00,55.1,48.3,30.27,SE,139,4.0,13.0,78,0.00,,,0.00,847,HR-IXPWINDi_r2_v1.2.,2013-04-29 15:31:00,
2013-04-29 11:36:00,55.0,48.2,30.27,East,95,7.0,13.0,78,0.00,,,0.00,849,HR-IXPWINDi_r2_v1.2.,2013-04-29 15:36:00,
2013-04-29 11:42:00,55.2,48.4,30.26,East,84,5.0,11.0,78,0.00,,,0.00,853,HR-IXPWINDi_r2_v1.2.,2013-04-29 15:42:00,
2013-04-29 11:47:00,55.3,48.2,30.27,SSE,148,8.0,10.0,77,0.00,,,0.00,867,HR-IXPWINDi_r2_v1.2.,2013-04-29 15:47:00,
2013-04-29 11:52:00,55.6,48.4,30.26,SE,130,5.0,12.0,77,0.00,,,0.00,870,HR-IXPWINDi_r2_v1.2.,2013-04-29 15:52:00,
2013-04-29 11:58:00,55.5,48.3,30.26,ESE,109,8.0,12.0,77,0.00,,,0.00,886,HR-IXPWINDi_r2_v1.2.,2013-04-29 15:58:00,
2013-04-29 12:03:00,55.1,48.0,30.26,ESE,112,8.0,12.0,77,0.00,,,0.00,902,HR-IXPWINDi_r2_v1.2.,2013-04-29 16:03:00,
2013-04-29 12:08:00,56.0,48.5,30.26,SE,132,8.0,12.0,76,0.00,,,0.00,904,HR-IXPWINDi_r2_v1.2.,2013-04-29 16:08:00,
2013-04-29 12:13:00,55.6,47.7,30.26,ESE,111,3.0,14.0,75,0.00,,,0.00,914,HR-IXPWINDi_r2_v1.2.,2013-04-29 16:13:00,
2013-04-29 12:18:00,56.1,48.6,30.26,ESE,117,7.0,14.0,76,0.00,,,0.00,956,HR-IXPWINDi_r2_v1.2.,2013-04-29 16:18:00,
2013-04-29 12:24:00,56.1,47.9,30.26,SSE,160,7.0,15.0,74,0.00,,,0.00,984,HR-IXPWINDi_r2_v1.2.,2013-04-29 16:24:00,
2013-04-29 12:29:00,56.2,48.0,30.26,ESE,111,14.0,15.0,74,0.00,,,0.00,469,HR-IXPWINDi_r2_v1.2.,2013-04-29 16:29:00,
2013-04-29 12:34:00,55.9,48.0,30.25,ENE,71,8.0,14.0,75,0.00,,,0.00,707,HR-IXPWINDi_r2_v1.2.,2013-04-29 16:34:00,
2013-04-29 12:39:00,56.1,47.9,30.25,SE,140,9.0,17.0,74,0.00,,,0.00,846,HR-IXPWINDi_r2_v1.2.,2013-04-29 16:39:00,
2013-04-29 12:44:00,55.9,47.7,30.25,SE,127,3.0,17.0,74,0.00,,,0.00,612,HR-IXPWINDi_r2_v1.2.,2013-04-29 16:44:00,
2013-04-29 12:49:00,55.8,47.9,30.25,ESE,122,9.0,14.0,75,0.00,,,0.00,851,HR-IXPWINDi_r2_v1.2.,2013-04-29 16:49:00,
2013-04-29 12:55:00,56.2,47.6,30.25,SE,138,8.0,14.0,73,0.00,,,0.00,926,HR-IXPWINDi_r2_v1.2.,2013-04-29 16:55:00,
2013-04-29 13:00:00,56.4,47.4,30.25,SSE,148,8.0,14.0,72,0.00,,,0.00,905,HR-IXPWINDi_r2_v1.2.,2013-04-29 17:00:00,
2013-04-29 13:05:00,56.7,47.7,30.25,East,89,5.0,13.0,72,0.00,,,0.00,891,HR-IXPWINDi_r2_v1.2.,2013-04-29 17:05:00,
2013-04-29 13:10:00,56.0,47.0,30.25,East,99,7.0,13.0,72,0.00,,,0.00,886,HR-IXPWINDi_r2_v1.2.,2013-04-29 17:10:00,
2013-04-29 13:15:00,56.8,48.2,30.25,SE,140,5.0,12.0,73,0.00,,,0.00,881,HR-IXPWINDi_r2_v1.2.,2013-04-29 17:15:00,
2013-04-29 13:21:00,56.3,47.0,30.24,SE,129,6.0,14.0,71,0.00,,,0.00,875,HR-IXPWINDi_r2_v1.2.,2013-04-29 17:21:00,
2013-04-29 13:27:00,56.6,47.3,30.24,SSE,150,3.0,14.0,71,0.00,,,0.00,870,HR-IXPWINDi_r2_v1.2.,2013-04-29 17:27:00,
2013-04-29 13:32:00,56.6,46.1,30.24,ESE,110,8.0,14.0,68,0.00,,,0.00,865,HR-IXPWINDi_r2_v1.2.,2013-04-29 17:32:00,
2013-04-29 13:37:00,56.2,46.1,30.24,East,98,10.0,14.0,69,0.00,,,0.00,861,HR-IXPWINDi_r2_v1.2.,2013-04-29 17:37:00,
2013-04-29 13:42:00,56.4,46.3,30.24,SE,127,11.0,14.0,69,0.00,,,0.00,854,HR-IXPWINDi_r2_v1.2.,2013-04-29 17:42:00,
2013-04-29 13:48:00,56.0,45.5,30.24,SE,134,11.0,17.0,68,0.00,,,0.00,849,HR-IXPWINDi_r2_v1.2.,2013-04-29 17:48:00,
2013-04-29 13:53:00,56.2,45.7,30.24,ESE,117,3.0,17.0,68,0.00,,,0.00,844,HR-IXPWINDi_r2_v1.2.,2013-04-29 17:53:00,
2013-04-29 13:58:00,56.5,45.6,30.23,ESE,113,12.0,17.0,67,0.00,,,0.00,840,HR-IXPWINDi_r2_v1.2.,2013-04-29 17:58:00,
2013-04-29 14:03:00,56.7,45.0,30.23,SE,130,8.0,15.0,65,0.00,,,0.00,837,HR-IXPWINDi_r2_v1.2.,2013-04-29 18:03:00,
2013-04-29 14:08:00,57.6,45.9,30.23,ENE,78,8.0,15.0,65,0.00,,,0.00,830,HR-IXPWINDi_r2_v1.2.,2013-04-29 18:08:00,
2013-04-29 14:14:00,57.5,45.0,30.23,SE,125,5.0,15.0,63,0.00,,,0.00,821,HR-IXPWINDi_r2_v1.2.,2013-04-29 18:14:00,
2013-04-29 14:19:00,57.3,44.8,30.23,SE,126,9.0,18.0,63,0.00,,,0.00,816,HR-IXPWINDi_r2_v1.2.,2013-04-29 18:19:00,
2013-04-29 14:24:00,56.8,44.3,30.23,ESE,107,8.0,18.0,63,0.00,,,0.00,809,HR-IXPWINDi_r2_v1.2.,2013-04-29 18:24:00,
2013-04-29 14:29:00,56.6,44.1,30.23,SSE,150,4.0,17.0,63,0.00,,,0.00,800,HR-IXPWINDi_r2_v1.2.,2013-04-29 18:29:00,
2013-04-29 14:34:00,56.6,43.7,30.23,NE,44,6.0,17.0,62,0.00,,,0.00,791,HR-IXPWINDi_r2_v1.2.,2013-04-29 18:34:00,
2013-04-29 14:40:00,57.0,43.6,30.23,East,89,3.0,17.0,61,0.00,,,0.00,780,HR-IXPWINDi_r2_v1.2.,2013-04-29 18:40:00,
2013-04-29 14:45:00,57.7,44.3,30.23,SE,135,12.0,14.0,61,0.00,,,0.00,773,HR-IXPWINDi_r2_v1.2.,2013-04-29 18:45:00,
2013-04-29 14:50:00,56.8,43.9,30.22,East,88,5.0,15.0,62,0.00,,,0.00,766,HR-IXPWINDi_r2_v1.2.,2013-04-29 18:50:00,
2013-04-29 14:55:00,57.3,43.0,30.22,SE,144,7.0,16.0,59,0.00,,,0.00,756,HR-IXPWINDi_r2_v1.2.,2013-04-29 18:55:00,
2013-04-29 15:00:00,57.0,42.8,30.22,ESE,115,5.0,16.0,59,0.00,,,0.00,747,HR-IXPWINDi_r2_v1.2.,2013-04-29 19:00:00,
2013-04-29 15:05:00,57.8,42.6,30.22,SE,145,5.0,15.0,57,0.00,,,0.00,737,HR-IXPWINDi_r2_v1.2.,2013-04-29 19:05:00,
2013-04-29 15:10:00,57.3,42.2,30.22,ESE,111,10.0,15.0,57,0.00,,,0.00,724,HR-IXPWINDi_r2_v1.2.,2013-04-29 19:10:00,
2013-04-29 15:16:00,57.0,42.3,30.22,ESE,121,7.0,17.0,58,0.00,,,0.00,710,HR-IXPWINDi_r2_v1.2.,2013-04-29 19:16:00,
2013-04-29 15:21:00,56.8,42.1,30.22,ENE,76,3.0,17.0,58,0.00,,,0.00,701,HR-IXPWINDi_r2_v1.2.,2013-04-29 19:21:00,
2013-04-29 15:27:00,56.5,42.3,30.21,ESE,117,8.0,17.0,59,0.00,,,0.00,686,HR-IXPWINDi_r2_v1.2.,2013-04-29 19:27:00,
2013-04-29 15:32:00,56.3,42.1,30.21,East,79,9.0,17.0,59,0.00,,,0.00,675,HR-IXPWINDi_r2_v1.2.,2013-04-29 19:32:00,
2013-04-29 15:37:00,56.7,42.5,30.21,ESE,110,7.0,17.0,59,0.00,,,0.00,663,HR-IXPWINDi_r2_v1.2.,2013-04-29 19:37:00,
2013-04-29 15:43:00,56.8,42.6,30.21,SE,126,10.0,17.0,59,0.00,,,0.00,640,HR-IXPWINDi_r2_v1.2.,2013-04-29 19:43:00,
2013-04-29 15:48:00,56.6,42.4,30.21,SE,126,7.0,15.0,59,0.00,,,0.00,629,HR-IXPWINDi_r2_v1.2.,2013-04-29 19:48:00,
2013-04-29 15:53:00,56.7,42.5,30.21,ESE,111,10.0,15.0,59,0.00,,,0.00,601,HR-IXPWINDi_r2_v1.2.,2013-04-29 19:53:00,
2013-04-29 15:58:00,56.7,42.0,30.21,ESE,122,5.0,16.0,58,0.00,,,0.00,615,HR-IXPWINDi_r2_v1.2.,2013-04-29 19:58:00,
2013-04-29 16:03:00,56.6,42.4,30.21,East,94,7.0,16.0,59,0.00,,,0.00,601,HR-IXPWINDi_r2_v1.2.,2013-04-29 20:03:00,
2013-04-29 16:08:00,56.3,41.7,30.21,SE,136,7.0,17.0,58,0.00,,,0.00,568,HR-IXPWINDi_r2_v1.2.,2013-04-29 20:08:00,
2013-04-29 16:14:00,56.1,41.5,30.20,SE,129,5.0,17.0,58,0.00,,,0.00,557,HR-IXPWINDi_r2_v1.2.,2013-04-29 20:14:00,
2013-04-29 16:19:00,55.9,41.3,30.20,SSE,155,7.0,16.0,58,0.00,,,0.00,504,HR-IXPWINDi_r2_v1.2.,2013-04-29 20:19:00,
2013-04-29 16:24:00,55.7,41.1,30.20,ESE,117,13.0,18.0,58,0.00,,,0.00,538,HR-IXPWINDi_r2_v1.2.,2013-04-29 20:24:00,
2013-04-29 16:29:00,55.8,41.2,30.20,SE,125,11.0,21.0,58,0.00,,,0.00,517,HR-IXPWINDi_r2_v1.2.,2013-04-29 20:29:00,
2013-04-29 16:34:00,55.8,41.6,30.20,East,91,6.0,21.0,59,0.00,,,0.00,462,HR-IXPWINDi_r2_v1.2.,2013-04-29 20:34:00,
2013-04-29 16:39:00,56.0,41.8,30.20,East,80,7.0,21.0,59,0.00,,,0.00,462,HR-IXPWINDi_r2_v1.2.,2013-04-29 20:39:00,
2013-04-29 16:45:00,56.2,42.0,30.20,ESE,105,8.0,14.0,59,0.00,,,0.00,462,HR-IXPWINDi_r2_v1.2.,2013-04-29 20:45:00,
2013-04-29 16:50:00,56.4,41.8,30.20,East,90,10.0,15.0,58,0.00,,,0.00,464,HR-IXPWINDi_r2_v1.2.,2013-04-29 20:50:00,
2013-04-29 16:55:00,56.5,41.9,30.20,SSE,149,5.0,15.0,58,0.00,,,0.00,448,HR-IXPWINDi_r2_v1.2.,2013-04-29 20:55:00,
2013-04-29 17:00:00,56.5,41.9,30.20,SE,138,12.0,14.0,58,0.00,,,0.00,441,HR-IXPWINDi_r2_v1.2.,2013-04-29 21:00:00,
2013-04-29 17:05:00,56.5,41.4,30.20,SE,135,9.0,17.0,57,0.00,,,0.00,422,HR-IXPWINDi_r2_v1.2.,2013-04-29 21:05:00,
2013-04-29 17:10:00,56.5,41.4,30.20,ESE,123,10.0,17.0,57,0.00,,,0.00,357,HR-IXPWINDi_r2_v1.2.,2013-04-29 21:10:00,
2013-04-29 17:16:00,56.3,41.7,30.20,SE,132,12.0,17.0,58,0.00,,,0.00,383,HR-IXPWINDi_r2_v1.2.,2013-04-29 21:16:00,
2013-04-29 17:21:00,55.9,41.7,30.20,SE,131,13.0,17.0,59,0.00,,,0.00,371,HR-IXPWINDi_r2_v1.2.,2013-04-29 21:21:00,
2013-04-29 17:26:00,55.9,42.2,30.20,SE,144,6.0,17.0,60,0.00,,,0.00,357,HR-IXPWINDi_r2_v1.2.,2013-04-29 21:26:00,
2013-04-29 17:31:00,55.6,42.7,30.20,SSE,153,9.0,17.0,62,0.00,,,0.00,343,HR-IXPWINDi_r2_v1.2.,2013-04-29 21:31:00,
2013-04-29 17:36:00,55.5,42.6,30.20,SSE,147,5.0,15.0,62,0.00,,,0.00,308,HR-IXPWINDi_r2_v1.2.,2013-04-29 21:36:00,
2013-04-29 17:41:00,55.4,42.6,30.20,ESE,117,14.0,16.0,62,0.00,,,0.00,295,HR-IXPWINDi_r2_v1.2.,2013-04-29 21:41:00,
2013-04-29 17:47:00,55.8,41.6,30.20,SE,139,9.0,16.0,59,0.00,,,0.00,260,HR-IXPWINDi_r2_v1.2.,2013-04-29 21:47:00,
2013-04-29 17:52:00,56.4,42.2,30.20,South,172,12.0,16.0,59,0.00,,,0.00,288,HR-IXPWINDi_r2_v1.2.,2013-04-29 21:52:00,
2013-04-29 17:57:00,56.8,42.6,30.20,SSE,159,10.0,15.0,59,0.00,,,0.00,265,HR-IXPWINDi_r2_v1.2.,2013-04-29 21:57:00,
2013-04-29 18:02:00,57.1,42.4,30.20,SSE,150,6.0,14.0,58,0.00,,,0.00,246,HR-IXPWINDi_r2_v1.2.,2013-04-29 22:02:00,
2013-04-29 18:07:00,57.0,43.6,30.20,South,174,10.0,13.0,61,0.00,,,0.00,223,HR-IXPWINDi_r2_v1.2.,2013-04-29 22:07:00,
2013-04-29 18:13:00,58.8,40.7,30.20,South,179,14.0,17.0,51,0.00,,,0.00,188,HR-IXPWINDi_r2_v1.2.,2013-04-29 22:13:00,
2013-04-29 18:18:00,59.3,41.1,30.20,South,190,15.0,17.0,51,0.00,,,0.00,183,HR-IXPWINDi_r2_v1.2.,2013-04-29 22:18:00,
2013-04-29 18:23:00,59.0,41.4,30.21,SSW,198,14.0,17.0,52,0.00,,,0.00,167,HR-IXPWINDi_r2_v1.2.,2013-04-29 22:23:00,
2013-04-29 18:28:00,58.7,41.1,30.21,South,188,13.0,16.0,52,0.00,,,0.00,142,HR-IXPWINDi_r2_v1.2.,2013-04-29 22:28:00,
2013-04-29 18:33:00,58.8,41.2,30.21,South,191,14.0,17.0,52,0.00,,,0.00,130,HR-IXPWINDi_r2_v1.2.,2013-04-29 22:33:00,
2013-04-29 18:38:00,58.7,40.1,30.21,South,188,15.0,17.0,50,0.00,,,0.00,111,HR-IXPWINDi_r2_v1.2.,2013-04-29 22:38:00,
2013-04-29 18:43:00,58.8,40.7,30.21,SSW,199,13.0,17.0,51,0.00,,,0.00,97,HR-IXPWINDi_r2_v1.2.,2013-04-29 22:43:00,
2013-04-29 18:49:00,58.9,39.7,30.21,South,188,17.0,18.0,49,0.00,,,0.00,84,HR-IXPWINDi_r2_v1.2.,2013-04-29 22:49:00,
2013-04-29 18:54:00,58.9,39.2,30.21,South,179,16.0,18.0,48,0.00,,,0.00,69,HR-IXPWINDi_r2_v1.2.,2013-04-29 22:54:00,
2013-04-29 18:59:00,58.7,39.6,30.22,SSW,195,13.0,18.0,49,0.00,,,0.00,53,HR-IXPWINDi_r2_v1.2.,2013-04-29 22:59:00,
2013-04-29 19:04:00,58.7,38.5,30.21,SSW,194,16.0,17.0,47,0.00,,,0.00,42,HR-IXPWINDi_r2_v1.2.,2013-04-29 23:04:00,
2013-04-29 19:09:00,58.5,38.3,30.22,South,188,15.0,17.0,47,0.00,,,0.00,30,HR-IXPWINDi_r2_v1.2.,2013-04-29 23:09:00,
2013-04-29 19:15:00,58.2,38.6,30.22,SSW,209,17.0,18.0,48,0.00,,,0.00,25,HR-IXPWINDi_r2_v1.2.,2013-04-29 23:15:00,
2013-04-29 19:20:00,58.1,37.9,30.22,South,188,18.0,18.0,47,0.00,,,0.00,18,HR-IXPWINDi_r2_v1.2.,2013-04-29 23:20:00,
2013-04-29 19:25:00,57.9,37.2,30.22,SSW,196,14.0,18.0,46,0.00,,,0.00,14,HR-IXPWINDi_r2_v1.2.,2013-04-29 23:25:00,
2013-04-29 19:30:00,57.7,37.0,30.22,SSW,194,14.0,19.0,46,0.00,,,0.00,9,HR-IXPWINDi_r2_v1.2.,2013-04-29 23:30:00,
2013-04-29 19:35:00,57.3,37.7,30.22,South,191,12.0,19.0,48,0.00,,,0.00,5,HR-IXPWINDi_r2_v1.2.,2013-04-29 23:35:00,
2013-04-29 19:40:00,56.9,37.4,30.22,South,181,14.0,17.0,48,0.00,,,0.00,0,HR-IXPWINDi_r2_v1.2.,2013-04-29 23:40:00,
2013-04-29 19:45:00,57.0,36.4,30.22,South,178,16.0,16.0,46,0.00,,,0.00,0,HR-IXPWINDi_r2_v1.2.,2013-04-29 23:45:00,
2013-04-29 19:50:00,56.9,37.4,30.22,South,180,15.0,16.0,48,0.00,,,0.00,0,HR-IXPWINDi_r2_v1.2.,2013-04-29 23:50:00,
2013-04-29 19:56:00,56.6,37.6,30.23,South,187,13.0,16.0,49,0.00,,,0.00,0,HR-IXPWINDi_r2_v1.2.,2013-04-29 23:56:00,
2013-04-29 20:01:00,56.3,38.9,30.23,South,184,11.0,16.0,52,0.00,,,0.00,0,HR-IXPWINDi_r2_v1.2.,2013-04-30 00:01:00,
2013-04-29 20:06:00,56.0,38.6,30.23,SSW,193,11.0,14.0,52,0.00,,,0.00,0,HR-IXPWINDi_r2_v1.2.,2013-04-30 00:06:00,
2013-04-29 20:11:00,55.7,39.7,30.23,SSW,195,11.0,14.0,55,0.00,,,0.00,0,HR-IXPWINDi_r2_v1.2.,2013-04-30 00:11:00,
2013-04-29 20:16:00,55.3,39.4,30.23,South,189,12.0,13.0,55,0.00,,,0.00,0,HR-IXPWINDi_r2_v1.2.,2013-04-30 00:16:00,
2013-04-29 20:22:00,55.6,34.6,30.23,SSW,192,11.0,15.0,45,0.00,,,0.00,0,HR-IXPWINDi_r2_v1.2.,2013-04-30 00:22:00,
2013-04-29 20:27:00,55.9,34.8,30.23,SSW,194,11.0,15.0,45,0.00,,,0.00,0,HR-IXPWINDi_r2_v1.2.,2013-04-30 00:27:00,
2013-04-29 20:32:00,56.0,34.4,30.24,SSW,196,11.0,15.0,44,0.00,,,0.00,0,HR-IXPWINDi_r2_v1.2.,2013-04-30 00:32:00,
2013-04-29 20:37:00,55.8,36.4,30.24,SSW,199,10.0,15.0,48,0.00,,,0.00,0,HR-IXPWINDi_r2_v1.2.,2013-04-30 00:37:00,
2013-04-29 20:42:00,55.5,37.1,30.24,SSW,199,10.0,13.0,50,0.00,,,0.00,0,HR-IXPWINDi_r2_v1.2.,2013-04-30 00:42:00,
2013-04-29 20:47:00,55.2,36.8,30.25,South,189,10.0,13.0,50,0.00,,,0.00,0,HR-IXPWINDi_r2_v1.2.,2013-04-30 00:47:00,
2013-04-29 20:53:00,55.2,36.3,30.25,South,183,12.0,13.0,49,0.00,,,0.00,0,HR-IXPWINDi_r2_v1.2.,2013-04-30 00:53:00,
2013-04-29 20:58:00,55.2,36.3,30.25,South,186,12.0,13.0,49,0.00,,,0.00,0,HR-IXPWINDi_r2_v1.2.,2013-04-30 00:58:00,
2013-04-29 21:03:00,55.1,36.2,30.25,SSW,194,11.0,13.0,49,0.00,,,0.00,0,HR-IXPWINDi_r2_v1.2.,2013-04-30 01:03:00,
2013-04-29 21:08:00,55.1,35.2,30.25,SSW,196,13.0,15.0,47,0.00,,,0.00,0,HR-IXPWINDi_r2_v1.2.,2013-04-30 01:08:00,
2013-04-29 21:14:00,55.0,35.1,30.25,SSW,195,11.0,15.0,47,0.00,,,0.00,0,HR-IXPWINDi_r2_v1.2.,2013-04-30 01:14:00,
2013-04-29 21:19:00,55.1,33.5,30.25,SSW,198,12.0,15.0,44,0.00,,,0.00,0,HR-IXPWINDi_r2_v1.2.,2013-04-30 01:19:00,
2013-04-29 21:24:00,54.9,36.6,30.25,SSW,194,10.0,15.0,50,0.00,,,0.00,0,HR-IXPWINDi_r2_v1.2.,2013-04-30 01:24:00,
2013-04-29 21:29:00,54.6,36.8,30.26,South,188,10.0,13.0,51,0.00,,,0.00,0,HR-IXPWINDi_r2_v1.2.,2013-04-30 01:29:00,
2013-04-29 21:34:00,54.5,37.2,30.25,South,190,9.0,11.0,52,0.00,,,0.00,0,HR-IXPWINDi_r2_v1.2.,2013-04-30 01:34:00,
2013-04-29 21:39:00,54.3,37.5,30.26,SSW,196,8.0,11.0,53,0.00,,,0.00,0,HR-IXPWINDi_r2_v1.2.,2013-04-30 01:39:00,
2013-04-29 21:45:00,54.1,38.7,30.25,South,188,10.0,11.0,56,0.00,,,0.00,0,HR-IXPWINDi_r2_v1.2.,2013-04-30 01:45:00,
2013-04-29 21:50:00,53.8,39.8,30.25,South,188,8.0,10.0,59,0.00,,,0.00,0,HR-IXPWINDi_r2_v1.2.,2013-04-30 01:50:00,
2013-04-29 21:55:00,53.3,40.6,30.26,South,190,7.0,10.0,62,0.00,,,0.00,0,HR-IXPWINDi_r2_v1.2.,2013-04-30 01:55:00,
2013-04-29 22:00:00,53.0,39.0,30.26,South,187,9.0,10.0,59,0.00,,,0.00,0,HR-IXPWINDi_r2_v1.2.,2013-04-30 02:00:00,
2013-04-29 22:05:00,53.0,39.9,30.26,South,186,8.0,10.0,61,0.00,,,0.00,0,HR-IXPWINDi_r2_v1.2.,2013-04-30 02:05:00,
2013-04-29 22:10:00,52.8,40.5,30.26,South,182,8.0,10.0,63,0.00,,,0.00,0,HR-IXPWINDi_r2_v1.2.,2013-04-30 02:10:00,
2013-04-29 22:15:00,52.7,40.4,30.26,SSW,192,8.0,9.0,63,0.00,,,0.00,0,HR-IXPWINDi_r2_v1.2.,2013-04-30 02:15:00,
2013-04-29 22:21:00,52.8,39.7,30.26,South,180,9.0,11.0,61,0.00,,,0.00,0,HR-IXPWINDi_r2_v1.2.,2013-04-30 02:21:00,
2013-04-29 22:26:00,52.8,39.7,30.26,SSW,198,7.0,11.0,61,0.00,,,0.00,0,HR-IXPWINDi_r2_v1.2.,2013-04-30 02:26:00,
2013-04-29 22:31:00,52.8,40.1,30.26,South,186,9.0,11.0,62,0.00,,,0.00,0,HR-IXPWINDi_r2_v1.2.,2013-04-30 02:31:00,
2013-04-29 22:36:00,52.8,38.8,30.26,South,184,9.0,12.0,59,0.00,,,0.00,0,HR-IXPWINDi_r2_v1.2.,2013-04-30 02:36:00,
2013-04-29 22:41:00,52.9,38.0,30.26,South,181,11.0,13.0,57,0.00,,,0.00,0,HR-IXPWINDi_r2_v1.2.,2013-04-30 02:41:00,
2013-04-29 22:46:00,53.0,38.1,30.26,South,186,10.0,13.0,57,0.00,,,0.00,0,HR-IXPWINDi_r2_v1.2.,2013-04-30 02:46:00,
2013-04-29 22:51:00,52.9,38.0,30.26,SSW,194,10.0,13.0,57,0.00,,,0.00,0,HR-IXPWINDi_r2_v1.2.,2013-04-30 02:51:00,
2013-04-29 22:57:00,52.8,38.4,30.26,SSW,196,9.0,13.0,58,0.00,,,0.00,0,HR-IXPWINDi_r2_v1.2.,2013-04-30 02:57:00,
2013-04-29 23:02:00,52.7,38.7,30.26,South,188,9.0,12.0,59,0.00,,,0.00,0,HR-IXPWINDi_r2_v1.2.,2013-04-30 03:02:00,
2013-04-29 23:07:00,52.5,39.8,30.26,SSW,195,7.0,11.0,62,0.00,,,0.00,0,HR-IXPWINDi_r2_v1.2.,2013-04-30 03:07:00,
2013-04-29 23:12:00,52.3,39.6,30.26,SSW,194,7.0,10.0,62,0.00,,,0.00,0,HR-IXPWINDi_r2_v1.2.,2013-04-30 03:12:00,
2013-04-29 23:17:00,52.2,39.9,30.26,South,188,8.0,10.0,63,0.00,,,0.00,0,HR-IXPWINDi_r2_v1.2.,2013-04-30 03:17:00,
2013-04-29 23:22:00,52.2,39.5,30.26,South,180,10.0,11.0,62,0.00,,,0.00,0,HR-IXPWINDi_r2_v1.2.,2013-04-30 03:22:00,
2013-04-29 23:27:00,52.2,38.7,30.26,SSW,194,9.0,11.0,60,0.00,,,0.00,0,HR-IXPWINDi_r2_v1.2.,2013-04-30 03:27:00,
2013-04-29 23:32:00,52.2,38.7,30.26,SSW,194,8.0,11.0,60,0.00,,,0.00,0,HR-IXPWINDi_r2_v1.2.,2013-04-30 03:32:00,
2013-04-29 23:37:00,52.2,38.3,30.27,SSW,202,8.0,11.0,59,0.00,,,0.00,0,HR-IXPWINDi_r2_v1.2.,2013-04-30 03:37:00,
2013-04-29 23:43:00,52.1,39.0,30.26,South,184,9.0,11.0,61,0.00,,,0.00,0,HR-IXPWINDi_r2_v1.2.,2013-04-30 03:43:00,
2013-04-29 23:48:00,51.9,39.2,30.26,SSW,194,9.0,12.0,62,0.00,,,0.00,0,HR-IXPWINDi_r2_v1.2.,2013-04-30 03:48:00,
2013-04-29 23:53:00,51.8,39.2,30.26,South,187,9.0,12.0,62,0.00,,,0.00,0,HR-IXPWINDi_r2_v1.2.,2013-04-30 03:53:00,
2013-04-29 23:58:00,51.8,38.7,30.27,South,187,9.0,12.0,61,0.00,,,0.00,0,HR-IXPWINDi_r2_v1.2.,2013-04-30 03:58:00,